Location: Stuttgart
(48.8069°N, 9.1544°E)
Time: 03:48:43
(UTC+02:00)

ISS - Pass Details

Date: 15 May 2021
Orbit: 417 x 422 km, 51.6° (Epoch: 15 June)

Event Time Altitude Azimuth Distance (km) Brightness Sun altitude
Rises 03:38:26 0° 290° (WNW) 2,375 -0.1 -15.6°
Reaches altitude 10° 03:40:33 10° 288° (WNW) 1,509 -1.1 -15.4°
Maximum altitude 03:43:55 69° 205° (SSW) 456 -3.9 -15.1°
Drops below altitude 10° 03:47:16 10° 122° (ESE) 1,505 -0.9 -14.8°
Sets 03:49:22 0° 120° (ESE) 2,367 0.1 -14.6°
